Printer-friendly version
Follow the MPC on Twitter Follow the MPC on Facebook The MPC blog
Minor Planet Center

MPEC 2010-F40 : 2010 FS

The following Minor Planet Electronic Circular may be linked-to from your own Web pages, but must not otherwise be redistributed electronically.

A form allowing access to any MPEC is at the bottom of this page.


Read MPEC 2010-F39 Read MPEC 2010-F41


M.P.E.C. 2010-F40                                Issued 2010 Mar. 19, 16:10 UT

     The Minor Planet Electronic Circulars contain information on unusual
         minor planets and routine data on comets.  They are published
   on behalf of Commission 20 of the International Astronomical Union by the
          Minor Planet Center, Smithsonian Astrophysical Observatory,
                          Cambridge, MA 02138, U.S.A.

             Prepared using the Tamkin Foundation Computer Network

                              MPC@CFA.HARVARD.EDU
       URL http://www.minorplanetcenter.org/iau/mpc.html  ISSN 1523-6714

                                    2010 FS

                           Revision to MPEC 2010-F35

Additional Observations:
     K10F00S  C2010 03 19.06455 07 10 56.72 +60 08 14.3          19.3 V EF040H21
     K10F00S  C2010 03 19.06679 07 10 58.94 +60 08 06.4          19.3 V EF040H21
     K10F00S  C2010 03 19.06903 07 11 01.16 +60 07 58.5          19.3 V EF040H21
     K10F00S  C2010 03 19.07125 07 11 03.35 +60 07 50.7          19.3 V EF040H21
     K10F00S  C2010 03 19.07345 07 11 05.53 +60 07 42.8          19.4 V EF040H21

Observer details:
H21 Astronomical Research Observatory, Westfield.  Observer R. Holmes.
    Measurer E. Steffen.  0.61-m f/4.5 astrograph + CCD.

Orbital elements:
2010 FS                                                  Earth MOID = 0.0086 AU
Epoch 2010 Jan. 4.0 TT = JDT 2455200.5                  MPC
M  39.74891              (2000.0)            P               Q
n   1.43544296     Peri.  205.86656     +0.96190041     -0.27192457
a   0.7782971      Node   169.78991     +0.27029435     +0.93024735
e   0.3187434      Incl.    9.20841     +0.04109211     +0.24636742
P   0.69           H   24.2           G   0.15           U   9
Residuals in seconds of arc
100318 703  0.2-  0.0     100318 H01  0.0   0.6+    100318 H01  0.0   0.5+
100318 703  0.1-  0.8+    100318 854  0.1+  0.7-    100318 926  0.0   0.1+
100318 703  0.5+  1.5-    100318 H01  0.1+  0.4+    100318 926  0.4+  0.1+
100318 703  0.7+  1.0+    100318 H21  0.1-  0.1-    100319 H21  0.0   0.1+
100318 703  0.1+  0.7+    100318 854  0.0   1.4-    100319 H21  0.0   0.1+
100318 703  0.8-  0.1+    100318 854  1.2+  0.1-    100319 H21  0.1+  0.0
100318 703  0.8-  0.7-    100318 H01  0.1-  0.4+    100319 H21  0.1+  0.0
100318 703  0.0   0.2+    100318 H21  0.0   0.3+    100319 H21  0.1+  0.1-
100318 703 (1.7-  3.2+)   100318 926  0.1-  0.2+

Ephemeris:
2010 FS                  a,e,i = 0.78, 0.32, 9                   q = 0.5302
Date    TT    R. A. (2000) Decl.     Delta      r     Elong.  Phase     V
2010 03 15    04 14.86   +60 54.4    0.0163   0.992    82.1    97.0    18.7
2010 03 16    05 24.23   +62 20.0    0.0200   0.995    89.6    89.2    18.8
2010 03 17    06 12.95   +62 00.3    0.0239   0.997    94.5    84.1    19.0
2010 03 18    06 46.29   +61 08.1    0.0280   0.999    97.8    80.6    19.3
2010 03 19    07 09.70   +60 10.3    0.0322   1.002   100.0    78.2    19.5
2010 03 20    07 26.76   +59 15.8    0.0365   1.004   101.6    76.4    19.7
2010 03 21    07 39.65   +58 26.9    0.0407   1.006   102.6    75.1    19.9
2010 03 22    07 49.73   +57 43.7    0.0451   1.008   103.3    74.2    20.1
2010 03 23    07 57.82   +57 05.6    0.0494   1.009   103.8    73.5    20.3
2010 03 24    08 04.47   +56 31.9    0.0537   1.011   104.1    73.0    20.4
2010 03 25    08 10.06   +56 02.0    0.0580   1.013   104.2    72.6    20.6
2010 03 26    08 14.83   +55 35.2    0.0624   1.014   104.2    72.4    20.7
2010 03 27    08 18.97   +55 11.1    0.0667   1.016   104.1    72.3    20.9
2010 03 28    08 22.61   +54 49.2    0.0710   1.017   103.9    72.2    21.0
2010 03 29    08 25.85   +54 29.2    0.0753   1.019   103.7    72.2    21.2
2010 03 30    08 28.76   +54 10.9    0.0796   1.020   103.4    72.3    21.3
2010 03 31    08 31.41   +53 53.8    0.0839   1.021   103.0    72.4    21.4
2010 04 01    08 33.83   +53 38.0    0.0882   1.022   102.7    72.5    21.5
2010 04 02    08 36.07   +53 23.2    0.0925   1.023   102.3    72.7    21.6
2010 04 03    08 38.15   +53 09.2    0.0967   1.024   101.8    72.9    21.7
2010 04 04    08 40.10   +52 56.0    0.101    1.025   101.4    73.1    21.8
2010 04 05    08 41.94   +52 43.5    0.105    1.025   100.9    73.3    21.9
2010 04 06    08 43.68   +52 31.5    0.109    1.026   100.4    73.6    22.0
2010 04 07    08 45.34   +52 20.0    0.113    1.026    99.9    73.9    22.1
2010 04 08    08 46.93   +52 09.0    0.118    1.027    99.4    74.1    22.2
2010 04 09    08 48.46   +51 58.4    0.122    1.027    98.8    74.4    22.3
2010 04 10    08 49.94   +51 48.1    0.126    1.027    98.3    74.7    22.4
2010 04 11    08 51.37   +51 38.1    0.130    1.028    97.7    75.1    22.4
2010 04 12    08 52.76   +51 28.5    0.134    1.028    97.2    75.4    22.5
2010 04 13    08 54.11   +51 19.1    0.138    1.028    96.6    75.7    22.6
2010 04 14    08 55.43   +51 10.0    0.142    1.028    96.0    76.1    22.7

Gareth V. Williams           (C) Copyright 2010 MPC           M.P.E.C. 2010-F40

Read MPEC 2010-F39 Read MPEC 2010-F41


MPEC number:

Enter an MPEC number in one of the following forms:

  • 1997-B01 (the full form)
  • J97B01 (the packed version of the full form)
  • B01 (the abbreviated form)

Valid HTML 4.01!